Location: Archemont
(49.1579°N, 1.7598°E)
Time: 09:53:14
(UTC+00:00)

Altair - Pass Details

Date: 22 April 2024
Orbit: 1501 x 1682 km, 47.2° (Epoch: 17 May)

Event Time Altitude Azimuth Distance (km) Brightness Sun altitude
Rises 01:17:00 0° 289° (WNW) 4,816 10.1 -25.7°
Reaches altitude 10° 01:20:42 10° 279° (W) 3,799 9.4 -25.5°
Enters shadow 01:24:59 23° 256° (WSW) 2,889 8.6 -25.2°
Maximum altitude 01:28:18 28° 226° (SW) 2,611 - -24.9°
Drops below altitude 10° 01:35:42 10° 172° (S) 3,682 - -24.4°
Sets 01:39:15 0° 161° (SSE) 4,643 - -24.1°
